Time,TemperatureF,DewpointF,PressureIn,WindDirection,WindDirectionDegrees,WindSpeedMPH,WindSpeedGustMPH,Humidity,HourlyPrecipIn,Conditions,Clouds,dailyrainin,SoftwareType,DateUTC
2013-06-13 00:00:00,75.4,72.9,29.98,SSE,165,1.0,2.0,92,0.00,,SKC,0.00,VWS V14.01,2013-06-13 05:00:00,
2013-06-13 00:01:00,75.4,73.2,29.98,SSE,165,0.0,1.0,93,0.00,,SKC,0.00,VWS V14.01,2013-06-13 05:01:00,
2013-06-13 00:06:00,75.4,73.2,29.98,SSE,165,0.0,1.0,93,0.00,,SKC,0.00,VWS V14.01,2013-06-13 05:06:00,
2013-06-13 00:10:00,75.4,73.2,29.98,SSE,165,0.0,1.0,93,0.00,,SKC,0.00,VWS V14.01,2013-06-13 05:10:00,
2013-06-13 00:11:00,75.4,73.2,29.98,SSE,165,0.0,0.0,93,0.00,,SKC,0.00,VWS V14.01,2013-06-13 05:11:00,
2013-06-13 00:16:00,75.3,73.1,29.98,SSE,165,0.0,0.0,93,0.00,,SKC,0.00,VWS V14.01,2013-06-13 05:16:00,
2013-06-13 00:20:00,75.3,73.1,29.98,SSE,165,0.0,0.0,93,0.00,,SKC,0.00,VWS V14.01,2013-06-13 05:20:00,
2013-06-13 00:21:00,75.3,73.1,29.98,SSE,165,0.0,0.0,93,0.00,,SKC,0.00,VWS V14.01,2013-06-13 05:21:00,
2013-06-13 00:26:00,75.3,73.1,29.97,SSE,165,0.0,0.0,93,0.00,,SKC,0.00,VWS V14.01,2013-06-13 05:26:00,
2013-06-13 00:30:00,75.3,73.1,29.97,SSE,165,0.0,0.0,93,0.00,,SKC,0.00,VWS V14.01,2013-06-13 05:30:00,
2013-06-13 00:31:00,75.2,73.0,29.98,SSE,165,0.0,2.0,93,0.00,,SKC,0.00,VWS V14.01,2013-06-13 05:31:00,
2013-06-13 00:36:00,75.2,73.0,29.97,SSE,165,0.0,2.0,93,0.00,,SKC,0.00,VWS V14.01,2013-06-13 05:36:00,
2013-06-13 00:40:00,75.2,73.0,29.97,SSE,165,0.0,2.0,93,0.00,,SKC,0.00,VWS V14.01,2013-06-13 05:40:00,
2013-06-13 00:41:00,75.1,72.9,29.97,SSE,165,0.0,0.0,93,0.00,,SKC,0.00,VWS V14.01,2013-06-13 05:41:00,
2013-06-13 00:46:00,75.1,72.9,29.97,SSE,165,0.0,0.0,93,0.00,,SKC,0.00,VWS V14.01,2013-06-13 05:46:00,
2013-06-13 00:50:00,75.1,72.9,29.97,SSE,165,0.0,0.0,93,0.00,,SKC,0.00,VWS V14.01,2013-06-13 05:50:00,
2013-06-13 00:51:00,75.0,72.8,29.97,SSE,165,0.0,0.0,93,0.00,,SKC,0.00,VWS V14.01,2013-06-13 05:51:00,
2013-06-13 00:56:00,74.9,73.1,29.97,SSE,165,0.0,0.0,94,0.00,,SKC,0.00,VWS V14.01,2013-06-13 05:56:00,
2013-06-13 01:00:00,74.9,73.1,29.97,SSE,165,0.0,0.0,94,0.00,,SKC,0.00,VWS V14.01,2013-06-13 06:00:00,
2013-06-13 01:01:00,74.9,73.1,29.97,SSE,165,0.0,0.0,94,0.00,,SKC,0.00,VWS V14.01,2013-06-13 06:01:00,
2013-06-13 01:06:00,74.9,73.1,29.97,SSE,165,0.0,0.0,94,0.00,,SKC,0.00,VWS V14.01,2013-06-13 06:06:00,
2013-06-13 01:10:00,74.9,73.1,29.97,SSE,165,0.0,0.0,94,0.00,,SKC,0.00,VWS V14.01,2013-06-13 06:10:00,
2013-06-13 01:11:00,74.9,73.1,29.97,SSE,165,0.0,0.0,94,0.00,,SKC,0.00,VWS V14.01,2013-06-13 06:11:00,
2013-06-13 01:16:00,74.9,73.1,29.97,SSE,165,0.0,0.0,94,0.00,,SKC,0.00,VWS V14.01,2013-06-13 06:16:00,
2013-06-13 01:20:00,74.9,73.1,29.97,SSE,165,0.0,0.0,94,0.00,,SKC,0.00,VWS V14.01,2013-06-13 06:20:00,
2013-06-13 01:21:00,74.9,73.1,29.97,SSE,165,0.0,0.0,94,0.00,,SKC,0.00,VWS V14.01,2013-06-13 06:21:00,
2013-06-13 01:26:00,75.0,73.2,29.97,SSE,165,0.0,0.0,94,0.00,,SKC,0.00,VWS V14.01,2013-06-13 06:26:00,
2013-06-13 01:30:00,75.0,73.2,29.97,SSE,165,0.0,0.0,94,0.00,,SKC,0.00,VWS V14.01,2013-06-13 06:30:00,
2013-06-13 01:31:00,75.1,73.6,29.97,SSE,165,0.0,0.0,95,0.00,,SKC,0.00,VWS V14.01,2013-06-13 06:31:00,
2013-06-13 01:36:00,75.1,73.6,29.97,SSE,165,0.0,0.0,95,0.00,,SKC,0.00,VWS V14.01,2013-06-13 06:36:00,
2013-06-13 01:40:00,75.1,73.6,29.97,SSE,165,0.0,0.0,95,0.00,,SKC,0.00,VWS V14.01,2013-06-13 06:40:00,
2013-06-13 01:41:00,75.2,73.7,29.97,SSE,165,0.0,0.0,95,0.00,,SKC,0.00,VWS V14.01,2013-06-13 06:41:00,
2013-06-13 01:46:00,75.3,73.8,29.97,SSE,165,0.0,0.0,95,0.00,,SKC,0.00,VWS V14.01,2013-06-13 06:46:00,
2013-06-13 01:50:00,75.3,73.8,29.97,SSE,165,0.0,0.0,95,0.00,,SKC,0.00,VWS V14.01,2013-06-13 06:50:00,
2013-06-13 01:51:00,75.4,73.9,29.97,SSE,165,0.0,0.0,95,0.00,,SKC,0.00,VWS V14.01,2013-06-13 06:51:00,
2013-06-13 01:56:00,75.5,74.0,29.97,SSE,165,0.0,0.0,95,0.00,,SKC,0.00,VWS V14.01,2013-06-13 06:56:00,
2013-06-13 02:00:00,75.5,74.0,29.97,SSE,165,0.0,0.0,95,0.00,,SKC,0.00,VWS V14.01,2013-06-13 07:00:00,
2013-06-13 02:01:00,75.5,74.0,29.97,SSE,165,0.0,4.0,95,0.00,,SKC,0.00,VWS V14.01,2013-06-13 07:01:00,
2013-06-13 02:06:00,75.6,74.1,29.97,SSE,165,0.0,4.0,95,0.00,,SKC,0.00,VWS V14.01,2013-06-13 07:06:00,
2013-06-13 02:10:00,75.6,74.1,29.97,SSE,165,0.0,4.0,95,0.00,,SKC,0.00,VWS V14.01,2013-06-13 07:10:00,
2013-06-13 02:11:00,75.6,74.1,29.97,SSE,165,0.0,0.0,95,0.00,,SKC,0.00,VWS V14.01,2013-06-13 07:11:00,
2013-06-13 02:16:00,75.7,74.2,29.97,SSE,165,3.0,4.0,95,0.00,,SKC,0.00,VWS V14.01,2013-06-13 07:16:00,
2013-06-13 02:20:00,75.7,74.2,29.97,SSE,165,0.0,4.0,95,0.00,,SKC,0.00,VWS V14.01,2013-06-13 07:20:00,
2013-06-13 02:21:00,75.7,74.2,29.97,SSE,165,0.0,5.0,95,0.00,,SKC,0.00,VWS V14.01,2013-06-13 07:21:00,
2013-06-13 02:26:00,75.7,74.2,29.97,SSE,165,0.0,5.0,95,0.00,,SKC,0.00,VWS V14.01,2013-06-13 07:26:00,
2013-06-13 02:30:00,75.7,74.2,29.97,SSE,165,0.0,5.0,95,0.00,,SKC,0.00,VWS V14.01,2013-06-13 07:30:00,
2013-06-13 02:31:00,75.8,74.3,29.97,SSE,165,0.0,0.0,95,0.00,,SKC,0.00,VWS V14.01,2013-06-13 07:31:00,
2013-06-13 02:36:00,75.8,74.3,29.97,SSE,165,0.0,0.0,95,0.00,,SKC,0.00,VWS V14.01,2013-06-13 07:36:00,
2013-06-13 02:40:00,75.8,74.3,29.97,SSE,165,0.0,0.0,95,0.00,,SKC,0.00,VWS V14.01,2013-06-13 07:40:00,
2013-06-13 02:41:00,75.8,74.3,29.97,SSE,165,0.0,4.0,95,0.00,,SKC,0.00,VWS V14.01,2013-06-13 07:41:00,
2013-06-13 02:46:00,75.9,74.4,29.97,SSE,165,0.0,4.0,95,0.00,,SKC,0.00,VWS V14.01,2013-06-13 07:46:00,
2013-06-13 02:50:00,75.9,74.4,29.97,SSE,165,0.0,4.0,95,0.00,,SKC,0.00,VWS V14.01,2013-06-13 07:50:00,
2013-06-13 02:51:00,75.9,74.4,29.97,SSE,165,0.0,0.0,95,0.00,,SKC,0.00,VWS V14.01,2013-06-13 07:51:00,
2013-06-13 02:56:00,75.9,74.4,29.97,SSE,165,0.0,0.0,95,0.00,,SKC,0.00,VWS V14.01,2013-06-13 07:56:00,
2013-06-13 03:00:00,75.9,74.4,29.97,SSE,165,0.0,0.0,95,0.00,,SKC,0.00,VWS V14.01,2013-06-13 08:00:00,
2013-06-13 03:01:00,76.0,74.5,29.97,SSE,165,0.0,2.0,95,0.00,,SKC,0.00,VWS V14.01,2013-06-13 08:01:00,
2013-06-13 03:06:00,76.0,74.5,29.97,SSE,165,0.0,2.0,95,0.00,,SKC,0.00,VWS V14.01,2013-06-13 08:06:00,
2013-06-13 03:10:00,76.0,74.5,29.97,SSE,165,0.0,2.0,95,0.00,,SKC,0.00,VWS V14.01,2013-06-13 08:10:00,
2013-06-13 03:11:00,76.0,74.5,29.97,SSE,165,0.0,0.0,95,0.00,,SKC,0.00,VWS V14.01,2013-06-13 08:11:00,
2013-06-13 03:16:00,76.0,74.5,29.97,SSE,165,0.0,1.0,95,0.00,,SKC,0.00,VWS V14.01,2013-06-13 08:16:00,
2013-06-13 03:20:00,76.0,74.5,29.97,SSE,165,0.0,1.0,95,0.00,,SKC,0.00,VWS V14.01,2013-06-13 08:20:00,
2013-06-13 03:21:00,76.1,74.6,29.97,SSE,165,0.0,0.0,95,0.00,,SKC,0.00,VWS V14.01,2013-06-13 08:21:00,
2013-06-13 03:26:00,76.1,74.6,29.97,SSE,165,0.0,0.0,95,0.00,,SKC,0.00,VWS V14.01,2013-06-13 08:26:00,
2013-06-13 03:30:00,76.1,74.6,29.97,SSE,165,0.0,0.0,95,0.00,,SKC,0.00,VWS V14.01,2013-06-13 08:30:00,
2013-06-13 03:31:00,76.1,74.6,29.97,SSE,165,0.0,0.0,95,0.00,,SKC,0.00,VWS V14.01,2013-06-13 08:31:00,
2013-06-13 03:36:00,76.1,74.6,29.97,SSE,165,0.0,0.0,95,0.00,,SKC,0.00,VWS V14.01,2013-06-13 08:36:00,
2013-06-13 03:40:00,76.1,74.6,29.97,SSE,165,0.0,0.0,95,0.00,,SKC,0.00,VWS V14.01,2013-06-13 08:40:00,
2013-06-13 03:41:00,76.0,74.5,29.97,SSE,165,0.0,0.0,95,0.00,,SKC,0.00,VWS V14.01,2013-06-13 08:41:00,
2013-06-13 03:46:00,76.0,74.5,29.97,SSE,165,0.0,2.0,95,0.00,,SKC,0.00,VWS V14.01,2013-06-13 08:46:00,
2013-06-13 03:50:00,76.0,74.5,29.97,SSE,165,0.0,2.0,95,0.00,,SKC,0.00,VWS V14.01,2013-06-13 08:50:00,
2013-06-13 03:51:00,76.0,74.5,29.97,SSE,165,0.0,0.0,95,0.00,,SKC,0.00,VWS V14.01,2013-06-13 08:51:00,
2013-06-13 03:56:00,76.0,74.5,29.97,SSE,165,0.0,0.0,95,0.00,,SKC,0.00,VWS V14.01,2013-06-13 08:56:00,
2013-06-13 04:00:00,76.0,74.5,29.97,SSE,165,0.0,0.0,95,0.00,,SKC,0.00,VWS V14.01,2013-06-13 09:00:00,
2013-06-13 04:01:00,76.0,74.5,29.97,SSE,165,0.0,0.0,95,0.00,,SKC,0.00,VWS V14.01,2013-06-13 09:01:00,
2013-06-13 04:06:00,76.1,74.6,29.97,SSE,165,0.0,0.0,95,0.00,,SKC,0.00,VWS V14.01,2013-06-13 09:06:00,
2013-06-13 04:10:00,76.0,74.5,29.97,SSE,165,0.0,0.0,95,0.00,,SKC,0.00,VWS V14.01,2013-06-13 09:10:00,
2013-06-13 04:11:00,76.0,74.5,29.97,SSE,165,0.0,0.0,95,0.00,,SKC,0.00,VWS V14.01,2013-06-13 09:11:00,
2013-06-13 04:16:00,76.1,74.6,29.97,SSE,165,0.0,0.0,95,0.00,,SKC,0.00,VWS V14.01,2013-06-13 09:16:00,
2013-06-13 04:20:00,76.1,74.6,29.97,SSE,165,0.0,0.0,95,0.00,,SKC,0.00,VWS V14.01,2013-06-13 09:20:00,
2013-06-13 04:21:00,76.1,74.6,29.97,SSE,165,0.0,0.0,95,0.00,,SKC,0.00,VWS V14.01,2013-06-13 09:21:00,
2013-06-13 04:26:00,76.1,74.6,29.97,SSE,165,0.0,0.0,95,0.00,,SKC,0.00,VWS V14.01,2013-06-13 09:26:00,
2013-06-13 04:30:00,76.1,74.6,29.97,SSE,165,0.0,0.0,95,0.00,,SKC,0.00,VWS V14.01,2013-06-13 09:30:00,
2013-06-13 04:31:00,76.0,74.5,29.97,SSE,165,0.0,0.0,95,0.00,,SKC,0.00,VWS V14.01,2013-06-13 09:31:00,
2013-06-13 04:36:00,76.0,74.5,29.97,SSE,165,0.0,0.0,95,0.00,,SKC,0.00,VWS V14.01,2013-06-13 09:36:00,
2013-06-13 04:40:00,76.0,74.5,29.97,SSE,165,0.0,0.0,95,0.00,,SKC,0.00,VWS V14.01,2013-06-13 09:40:00,
2013-06-13 04:41:00,76.0,74.5,29.98,SSE,165,0.0,0.0,95,0.00,,SKC,0.00,VWS V14.01,2013-06-13 09:41:00,
2013-06-13 04:46:00,76.0,74.5,29.97,SSE,165,0.0,0.0,95,0.00,,SKC,0.00,VWS V14.01,2013-06-13 09:46:00,
2013-06-13 04:50:00,75.9,74.4,29.97,SSE,165,0.0,0.0,95,0.00,,SKC,0.00,VWS V14.01,2013-06-13 09:50:00,
2013-06-13 04:51:00,75.9,74.4,29.97,SSE,165,0.0,0.0,95,0.00,,SKC,0.00,VWS V14.01,2013-06-13 09:51:00,
2013-06-13 04:55:00,75.9,74.4,29.98,SSE,165,0.0,0.0,95,0.00,,SKC,0.00,VWS V14.01,2013-06-13 09:55:00,
2013-06-13 05:00:00,75.9,74.4,29.97,SSE,165,0.0,0.0,95,0.00,,SKC,0.00,VWS V14.01,2013-06-13 10:00:00,
2013-06-13 05:05:00,76.0,74.5,29.97,SSE,165,0.0,0.0,95,0.00,,SKC,0.00,VWS V14.01,2013-06-13 10:05:00,
2013-06-13 05:10:00,76.0,74.5,29.97,SSE,165,0.0,0.0,95,0.00,,SKC,0.00,VWS V14.01,2013-06-13 10:10:00,
2013-06-13 05:15:00,76.0,74.5,29.97,SSE,165,0.0,0.0,95,0.00,,SKC,0.00,VWS V14.01,2013-06-13 10:15:00,
2013-06-13 05:20:00,76.0,74.5,29.97,SSE,165,0.0,0.0,95,0.00,,SKC,0.00,VWS V14.01,2013-06-13 10:20:00,
2013-06-13 05:25:00,76.0,74.5,29.97,SSE,165,0.0,0.0,95,0.00,,SKC,0.00,VWS V14.01,2013-06-13 10:25:00,
2013-06-13 05:30:00,75.9,74.4,29.97,SSE,165,0.0,0.0,95,0.00,,SKC,0.00,VWS V14.01,2013-06-13 10:30:00,
2013-06-13 05:35:00,75.9,74.4,29.98,SSE,165,0.0,0.0,95,0.00,,SKC,0.00,VWS V14.01,2013-06-13 10:35:00,
2013-06-13 05:40:00,76.0,74.5,29.97,SSE,165,0.0,0.0,95,0.00,,SKC,0.00,VWS V14.01,2013-06-13 10:40:00,
2013-06-13 05:45:00,75.9,74.4,29.98,SSE,165,0.0,0.0,95,0.00,,SKC,0.00,VWS V14.01,2013-06-13 10:45:00,
2013-06-13 05:50:00,75.9,74.4,29.97,SSE,165,0.0,0.0,95,0.00,,SKC,0.00,VWS V14.01,2013-06-13 10:50:00,
2013-06-13 05:55:00,75.9,74.4,29.97,SSE,165,0.0,0.0,95,0.00,,SKC,0.00,VWS V14.01,2013-06-13 10:55:00,
2013-06-13 06:00:00,75.8,74.3,29.97,SSE,165,0.0,0.0,95,0.00,,SKC,0.00,VWS V14.01,2013-06-13 11:00:00,
2013-06-13 06:05:00,75.8,74.3,29.97,SSE,165,0.0,1.0,95,0.00,,SKC,0.00,VWS V14.01,2013-06-13 11:05:00,
2013-06-13 06:10:00,75.8,74.3,29.98,SSE,165,0.0,0.0,95,0.00,,SKC,0.00,VWS V14.01,2013-06-13 11:10:00,
2013-06-13 06:15:00,75.7,74.2,29.98,SSE,165,0.0,0.0,95,0.00,,SKC,0.00,VWS V14.01,2013-06-13 11:15:00,
2013-06-13 06:20:00,75.8,74.3,29.98,SSE,165,0.0,0.0,95,0.00,,SKC,0.00,VWS V14.01,2013-06-13 11:20:00,
2013-06-13 06:25:00,75.8,74.3,29.98,SSE,165,0.0,7.0,95,0.00,,SKC,0.00,VWS V14.01,2013-06-13 11:25:00,
2013-06-13 06:30:00,75.8,74.3,29.98,SSE,165,3.0,4.0,95,0.00,,SKC,0.00,VWS V14.01,2013-06-13 11:30:00,
2013-06-13 06:35:00,75.8,74.3,29.98,SSE,165,0.0,4.0,95,0.00,,SKC,0.00,VWS V14.01,2013-06-13 11:35:00,
2013-06-13 06:40:00,75.8,74.3,29.98,SSE,165,0.0,6.0,95,0.00,,SKC,0.00,VWS V14.01,2013-06-13 11:40:00,
2013-06-13 06:45:00,75.8,74.3,29.98,South,169,0.0,6.0,95,0.00,,SKC,0.00,VWS V14.01,2013-06-13 11:45:00,
2013-06-13 06:50:00,75.8,74.3,29.99,South,169,0.0,0.0,95,0.00,,SKC,0.00,VWS V14.01,2013-06-13 11:50:00,
2013-06-13 06:55:00,75.8,74.3,29.99,South,173,0.0,0.0,95,0.00,,SKC,0.00,VWS V14.01,2013-06-13 11:55:00,
2013-06-13 07:00:00,75.8,74.3,29.99,South,173,0.0,1.0,95,0.00,,SKC,0.00,VWS V14.01,2013-06-13 12:00:00,
2013-06-13 07:05:00,75.9,74.4,29.99,South,173,0.0,1.0,95,0.00,,SKC,0.00,VWS V14.01,2013-06-13 12:05:00,
2013-06-13 07:10:00,76.0,74.5,29.99,South,173,0.0,0.0,95,0.00,,SKC,0.00,VWS V14.01,2013-06-13 12:10:00,
2013-06-13 07:15:00,76.0,74.5,29.99,South,173,0.0,0.0,95,0.00,,SKC,0.00,VWS V14.01,2013-06-13 12:15:00,
2013-06-13 07:20:00,76.1,74.6,29.99,South,173,0.0,0.0,95,0.00,,SKC,0.00,VWS V14.01,2013-06-13 12:20:00,
2013-06-13 07:25:00,76.2,74.7,29.99,South,173,0.0,0.0,95,0.00,,SKC,0.00,VWS V14.01,2013-06-13 12:25:00,
2013-06-13 07:30:00,76.3,74.8,29.99,South,173,0.0,0.0,95,0.00,,SKC,0.00,VWS V14.01,2013-06-13 12:30:00,
2013-06-13 07:35:00,76.4,74.9,29.99,South,175,0.0,0.0,95,0.00,,SKC,0.00,VWS V14.01,2013-06-13 12:35:00,
2013-06-13 07:40:00,76.5,75.0,29.99,South,175,0.0,0.0,95,0.00,,SKC,0.00,VWS V14.01,2013-06-13 12:40:00,
2013-06-13 07:45:00,76.6,75.1,30.00,South,175,0.0,0.0,95,0.00,,SKC,0.00,VWS V14.01,2013-06-13 12:45:00,
2013-06-13 07:50:00,76.7,75.2,30.00,South,175,0.0,0.0,95,0.00,,SKC,0.00,VWS V14.01,2013-06-13 12:50:00,
2013-06-13 07:55:00,76.8,75.3,30.00,South,175,0.0,0.0,95,0.00,,SKC,0.00,VWS V14.01,2013-06-13 12:55:00,
2013-06-13 08:00:00,76.9,75.4,30.00,South,175,0.0,0.0,95,0.00,,SKC,0.00,VWS V14.01,2013-06-13 13:00:00,
2013-06-13 08:05:00,77.0,75.5,30.00,South,172,1.0,6.0,95,0.00,,SKC,0.00,VWS V14.01,2013-06-13 13:05:00,
2013-06-13 08:10:00,77.1,75.6,30.00,South,171,0.0,2.0,95,0.00,,SKC,0.00,VWS V14.01,2013-06-13 13:10:00,
2013-06-13 08:15:00,77.2,75.7,30.00,South,171,0.0,2.0,95,0.00,,SKC,0.00,VWS V14.01,2013-06-13 13:15:00,
2013-06-13 08:20:00,77.3,75.8,30.00,South,171,0.0,0.0,95,0.00,,SKC,0.00,VWS V14.01,2013-06-13 13:20:00,
2013-06-13 08:25:00,77.5,76.0,30.00,South,171,0.0,1.0,95,0.01,,SKC,0.01,VWS V14.01,2013-06-13 13:25:00,
2013-06-13 08:30:00,77.5,76.0,30.00,South,172,0.0,5.0,95,0.01,,SKC,0.01,VWS V14.01,2013-06-13 13:30:00,
2013-06-13 08:35:00,77.6,75.7,30.01,South,172,0.0,5.0,94,0.01,,SKC,0.01,VWS V14.01,2013-06-13 13:35:00,
2013-06-13 08:40:00,77.7,76.2,30.01,South,172,0.0,0.0,95,0.01,,SKC,0.01,VWS V14.01,2013-06-13 13:40:00,
2013-06-13 08:45:00,78.0,76.5,30.01,South,172,0.0,1.0,95,0.01,,SKC,0.01,VWS V14.01,2013-06-13 13:45:00,
2013-06-13 08:50:00,78.5,76.9,30.01,South,172,0.0,3.0,95,0.01,,SKC,0.01,VWS V14.01,2013-06-13 13:50:00,
2013-06-13 08:55:00,78.7,76.5,30.01,South,172,0.0,3.0,93,0.01,,SKC,0.01,VWS V14.01,2013-06-13 13:55:00,
2013-06-13 09:00:00,79.0,76.8,30.01,South,172,0.0,1.0,93,0.01,,SKC,0.01,VWS V14.01,2013-06-13 14:00:00,
2013-06-13 09:05:00,79.4,76.6,30.01,South,172,0.0,1.0,91,0.01,,SKC,0.01,VWS V14.01,2013-06-13 14:05:00,
2013-06-13 09:10:00,79.8,76.9,30.02,SSE,167,3.0,8.0,91,0.01,,SKC,0.01,VWS V14.01,2013-06-13 14:10:00,
2013-06-13 09:15:00,80.1,76.2,30.02,SSE,167,0.0,8.0,88,0.01,,SKC,0.01,VWS V14.01,2013-06-13 14:15:00,
2013-06-13 09:20:00,80.3,76.1,30.02,SSE,167,1.0,5.0,87,0.01,,SKC,0.01,VWS V14.01,2013-06-13 14:20:00,
2013-06-13 09:25:00,80.3,75.7,30.02,South,169,0.0,7.0,86,0.01,,SKC,0.01,VWS V14.01,2013-06-13 14:25:00,
2013-06-13 09:30:00,80.5,75.6,30.02,SSE,168,0.0,6.0,85,0.00,,SKC,0.01,VWS V14.01,2013-06-13 14:30:00,
2013-06-13 09:35:00,80.8,75.9,30.02,SSE,168,0.0,6.0,85,0.00,,SKC,0.01,VWS V14.01,2013-06-13 14:35:00,
2013-06-13 09:40:00,81.1,76.2,30.02,SSE,168,0.0,2.0,85,0.00,,SKC,0.01,VWS V14.01,2013-06-13 14:40:00,
2013-06-13 09:45:00,81.4,76.1,30.02,South,169,0.0,3.0,84,0.00,,SKC,0.01,VWS V14.01,2013-06-13 14:45:00,
2013-06-13 09:50:00,81.6,76.3,30.02,SSE,168,0.0,4.0,84,0.00,,SKC,0.01,VWS V14.01,2013-06-13 14:50:00,
2013-06-13 09:55:00,81.8,75.8,30.02,SSE,168,0.0,4.0,82,0.00,,SKC,0.01,VWS V14.01,2013-06-13 14:55:00,
2013-06-13 10:00:00,81.9,75.9,30.02,SSE,167,0.0,5.0,82,0.00,,SKC,0.01,VWS V14.01,2013-06-13 15:00:00,
2013-06-13 10:05:00,82.1,76.1,30.03,SSE,167,0.0,5.0,82,0.00,,SKC,0.01,VWS V14.01,2013-06-13 15:05:00,
2013-06-13 10:10:00,82.3,76.3,30.02,SSE,167,0.0,0.0,82,0.00,,SKC,0.01,VWS V14.01,2013-06-13 15:10:00,
2013-06-13 10:15:00,82.3,76.3,30.02,SSE,168,0.0,1.0,82,0.00,,SKC,0.01,VWS V14.01,2013-06-13 15:15:00,
2013-06-13 10:20:00,82.4,76.7,30.02,SSE,168,0.0,0.0,83,0.00,,SKC,0.01,VWS V14.01,2013-06-13 15:20:00,
2013-06-13 10:25:00,82.5,75.7,30.02,SSE,168,2.0,2.0,80,0.00,,SKC,0.01,VWS V14.01,2013-06-13 15:25:00,
2013-06-13 10:30:00,82.6,76.2,30.02,SSE,167,0.0,4.0,81,0.00,,SKC,0.01,VWS V14.01,2013-06-13 15:30:00,
2013-06-13 10:35:00,83.1,76.7,30.02,SSE,167,0.0,4.0,81,0.00,,SKC,0.01,VWS V14.01,2013-06-13 15:35:00,
2013-06-13 10:40:00,83.8,77.0,30.02,SSE,167,0.0,0.0,80,0.00,,SKC,0.01,VWS V14.01,2013-06-13 15:40:00,
2013-06-13 10:45:00,84.4,76.8,30.02,SSE,167,0.0,3.0,78,0.00,,SKC,0.01,VWS V14.01,2013-06-13 15:45:00,
2013-06-13 10:50:00,85.0,76.6,30.02,SSE,163,0.0,5.0,76,0.00,,SKC,0.01,VWS V14.01,2013-06-13 15:50:00,
2013-06-13 10:55:00,85.7,76.9,30.02,SSE,163,0.0,5.0,75,0.00,,SKC,0.01,VWS V14.01,2013-06-13 15:55:00,
2013-06-13 11:00:00,86.1,76.8,30.02,SSE,163,0.0,5.0,74,0.00,,SKC,0.01,VWS V14.01,2013-06-13 16:00:00,
2013-06-13 11:05:00,86.5,76.8,30.02,SSE,163,0.0,5.0,73,0.00,,SKC,0.01,VWS V14.01,2013-06-13 16:05:00,
2013-06-13 11:10:00,87.0,76.5,30.02,SSE,163,0.0,8.0,71,0.00,,SKC,0.01,VWS V14.01,2013-06-13 16:10:00,
2013-06-13 11:15:00,87.1,77.4,30.02,SSE,163,0.0,8.0,73,0.00,,SKC,0.01,VWS V14.01,2013-06-13 16:15:00,
2013-06-13 11:20:00,87.2,76.7,30.02,SSE,161,0.0,3.0,71,0.00,,SKC,0.01,VWS V14.01,2013-06-13 16:20:00,
2013-06-13 11:25:00,87.6,76.6,30.02,SSE,161,0.0,7.0,70,0.00,,SKC,0.01,VWS V14.01,2013-06-13 16:25:00,
2013-06-13 11:30:00,88.0,77.4,30.02,SSE,159,0.0,4.0,71,0.00,,SKC,0.01,VWS V14.01,2013-06-13 16:30:00,
2013-06-13 11:35:00,88.2,76.8,30.02,SSE,159,0.0,4.0,69,0.00,,SKC,0.01,VWS V14.01,2013-06-13 16:35:00,
2013-06-13 11:40:00,88.4,76.9,30.01,SSE,159,0.0,1.0,69,0.00,,SKC,0.01,VWS V14.01,2013-06-13 16:40:00,
2013-06-13 11:45:00,88.2,76.8,30.01,SSE,159,0.0,6.0,69,0.00,,SKC,0.01,VWS V14.01,2013-06-13 16:45:00,
2013-06-13 11:50:00,88.0,77.4,30.01,SSE,161,2.0,5.0,71,0.00,,SKC,0.01,VWS V14.01,2013-06-13 16:50:00,
2013-06-13 11:55:00,87.9,76.9,30.01,SSE,163,1.0,6.0,70,0.00,,SKC,0.01,VWS V14.01,2013-06-13 16:55:00,
2013-06-13 12:00:00,87.8,76.4,30.01,SSE,165,0.0,7.0,69,0.00,,SKC,0.01,VWS V14.01,2013-06-13 17:00:00,
2013-06-13 12:05:00,87.6,76.6,30.01,SSE,165,0.0,7.0,70,0.00,,SKC,0.01,VWS V14.01,2013-06-13 17:05:00,
2013-06-13 12:10:00,87.8,77.2,30.01,SSE,165,0.0,1.0,71,0.00,,SKC,0.01,VWS V14.01,2013-06-13 17:10:00,
2013-06-13 12:15:00,88.3,76.8,30.01,SSE,165,0.0,1.0,69,0.00,,SKC,0.01,VWS V14.01,2013-06-13 17:15:00,
2013-06-13 12:20:00,88.7,76.8,30.00,SSE,165,0.0,1.0,68,0.00,,SKC,0.01,VWS V14.01,2013-06-13 17:20:00,
2013-06-13 12:25:00,88.7,77.2,30.00,SSE,165,0.0,1.0,69,0.00,,SKC,0.01,VWS V14.01,2013-06-13 17:25:00,
2013-06-13 12:30:00,89.0,77.1,29.99,SSE,165,0.0,3.0,68,0.00,,SKC,0.01,VWS V14.01,2013-06-13 17:30:00,
2013-06-13 12:35:00,89.6,76.3,29.99,SSE,165,0.0,3.0,65,0.00,,SKC,0.01,VWS V14.01,2013-06-13 17:35:00,
2013-06-13 12:40:00,90.0,76.2,29.99,SSE,165,0.0,3.0,64,0.00,,SKC,0.01,VWS V14.01,2013-06-13 17:40:00,
2013-06-13 12:45:00,89.8,76.5,29.99,SSE,165,0.0,3.0,65,0.00,,SKC,0.01,VWS V14.01,2013-06-13 17:45:00,
2013-06-13 12:50:00,89.4,77.0,29.99,SSE,164,0.0,2.0,67,0.00,,SKC,0.01,VWS V14.01,2013-06-13 17:50:00,
2013-06-13 12:55:00,89.5,76.7,29.99,SSE,155,0.0,5.0,66,0.00,,SKC,0.01,VWS V14.01,2013-06-13 17:55:00,
2013-06-13 13:00:00,89.9,76.1,29.99,SSE,155,0.0,3.0,64,0.00,,SKC,0.01,VWS V14.01,2013-06-13 18:00:00,
2013-06-13 13:05:00,90.3,76.9,29.99,SE,144,0.0,3.0,65,0.00,,SKC,0.01,VWS V14.01,2013-06-13 18:05:00,
2013-06-13 13:10:00,90.7,76.4,29.99,SE,145,0.0,6.0,63,0.00,,SKC,0.01,VWS V14.01,2013-06-13 18:10:00,
2013-06-13 13:15:00,90.6,76.8,29.98,SE,145,0.0,6.0,64,0.00,,SKC,0.01,VWS V14.01,2013-06-13 18:15:00,
2013-06-13 13:20:00,90.5,77.1,29.98,SE,145,0.0,1.0,65,0.00,,SKC,0.01,VWS V14.01,2013-06-13 18:20:00,
2013-06-13 13:25:00,90.7,77.3,29.97,SE,144,0.0,2.0,65,0.00,,SKC,0.01,VWS V14.01,2013-06-13 18:25:00,
2013-06-13 13:30:00,91.0,77.1,29.97,SE,144,0.0,10.0,64,0.00,,SKC,0.01,VWS V14.01,2013-06-13 18:30:00,
2013-06-13 13:35:00,91.0,75.7,29.97,SE,144,0.0,10.0,61,0.00,,SKC,0.01,VWS V14.01,2013-06-13 18:35:00,
2013-06-13 13:40:00,91.4,77.0,29.96,SE,144,0.0,2.0,63,0.00,,SKC,0.01,VWS V14.01,2013-06-13 18:40:00,
2013-06-13 13:45:00,91.8,76.4,29.96,SE,144,2.0,4.0,61,0.00,,SKC,0.01,VWS V14.01,2013-06-13 18:45:00,
2013-06-13 13:50:00,91.9,75.0,29.96,SE,144,0.0,2.0,58,0.00,,SKC,0.01,VWS V14.01,2013-06-13 18:50:00,
2013-06-13 13:55:00,91.6,75.2,29.96,SE,144,0.0,2.0,59,0.00,,SKC,0.01,VWS V14.01,2013-06-13 18:55:00,
2013-06-13 14:00:00,91.2,74.9,29.96,SE,144,0.0,5.0,59,0.00,,SKC,0.01,VWS V14.01,2013-06-13 19:00:00,
2013-06-13 14:05:00,90.9,75.6,29.96,SE,144,0.0,5.0,61,0.00,,SKC,0.01,VWS V14.01,2013-06-13 19:05:00,
2013-06-13 14:10:00,90.9,75.6,29.95,SE,144,4.0,4.0,61,0.00,,SKC,0.01,VWS V14.01,2013-06-13 19:10:00,
2013-06-13 14:15:00,90.8,75.0,29.95,SE,144,0.0,4.0,60,0.00,,SKC,0.01,VWS V14.01,2013-06-13 19:15:00,
2013-06-13 14:20:00,90.7,75.4,29.96,SE,144,0.0,0.0,61,0.00,,SKC,0.01,VWS V14.01,2013-06-13 19:20:00,
2013-06-13 14:25:00,90.8,76.0,29.96,SE,144,0.0,5.0,62,0.00,,SKC,0.01,VWS V14.01,2013-06-13 19:25:00,
2013-06-13 14:30:00,91.0,75.7,29.96,SE,144,0.0,4.0,61,0.00,,SKC,0.01,VWS V14.01,2013-06-13 19:30:00,
2013-06-13 14:35:00,91.3,76.5,29.96,SE,146,2.0,9.0,62,0.00,,SKC,0.01,VWS V14.01,2013-06-13 19:35:00,
2013-06-13 14:40:00,91.0,75.7,29.96,SSE,165,3.0,12.0,61,0.00,,SKC,0.01,VWS V14.01,2013-06-13 19:40:00,
2013-06-13 14:45:00,89.1,72.9,29.97,SSW,195,4.0,23.0,59,0.00,,SKC,0.01,VWS V14.01,2013-06-13 19:45:00,
2013-06-13 14:50:00,84.8,70.3,29.98,SSE,151,15.0,20.0,62,0.00,,SKC,0.01,VWS V14.01,2013-06-13 19:50:00,
2013-06-13 14:55:00,82.3,71.1,29.97,SSW,195,0.0,20.0,69,0.00,,SKC,0.01,VWS V14.01,2013-06-13 19:55:00,
2013-06-13 15:00:00,80.5,70.2,29.97,SSE,161,6.0,19.0,71,0.00,,SKC,0.01,VWS V14.01,2013-06-13 20:00:00,
2013-06-13 15:05:00,79.3,69.1,29.97,South,169,3.0,19.0,71,0.00,,SKC,0.01,VWS V14.01,2013-06-13 20:05:00,
2013-06-13 15:10:00,78.7,68.5,29.96,SSW,195,0.0,7.0,71,0.00,,SKC,0.01,VWS V14.01,2013-06-13 20:10:00,
2013-06-13 15:15:00,78.2,68.4,29.97,SSE,165,0.0,10.0,72,0.00,,SKC,0.01,VWS V14.01,2013-06-13 20:15:00,
2013-06-13 15:20:00,77.8,68.5,29.97,SSE,164,0.0,1.0,73,0.00,,SKC,0.01,VWS V14.01,2013-06-13 20:20:00,
2013-06-13 15:25:00,77.5,68.6,29.98,SSE,164,0.0,1.0,74,0.00,,SKC,0.01,VWS V14.01,2013-06-13 20:25:00,
2013-06-13 15:30:00,77.3,68.8,29.98,SSE,164,0.0,0.0,75,0.00,,SKC,0.01,VWS V14.01,2013-06-13 20:30:00,
2013-06-13 15:35:00,77.1,68.6,29.97,SSE,164,0.0,0.0,75,0.00,,SKC,0.01,VWS V14.01,2013-06-13 20:35:00,
2013-06-13 15:40:00,77.1,69.3,29.97,SSE,164,0.0,0.0,77,0.00,,SKC,0.01,VWS V14.01,2013-06-13 20:40:00,
2013-06-13 15:45:00,77.1,69.7,29.97,SSE,164,0.0,0.0,78,0.00,,SKC,0.01,VWS V14.01,2013-06-13 20:45:00,
2013-06-13 15:50:00,77.1,70.1,29.97,SSE,164,0.0,0.0,79,0.00,,SKC,0.01,VWS V14.01,2013-06-13 20:50:00,
2013-06-13 15:55:00,77.2,70.9,29.97,SSE,164,0.0,1.0,81,0.00,,SKC,0.01,VWS V14.01,2013-06-13 20:55:00,
2013-06-13 16:00:00,77.4,71.5,29.97,SSE,163,0.0,0.0,82,0.00,,SKC,0.01,VWS V14.01,2013-06-13 21:00:00,
2013-06-13 16:05:00,77.6,72.0,29.96,South,170,0.0,3.0,83,0.00,,SKC,0.01,VWS V14.01,2013-06-13 21:05:00,
2013-06-13 16:10:00,77.6,72.0,29.95,SSE,167,0.0,0.0,83,0.00,,SKC,0.01,VWS V14.01,2013-06-13 21:10:00,
2013-06-13 16:15:00,77.6,71.7,29.94,SSE,167,0.0,0.0,82,0.00,,SKC,0.01,VWS V14.01,2013-06-13 21:15:00,
2013-06-13 16:20:00,77.7,71.8,29.94,SSE,167,0.0,0.0,82,0.00,,SKC,0.01,VWS V14.01,2013-06-13 21:20:00,
2013-06-13 16:25:00,77.7,71.8,29.94,SSE,167,0.0,0.0,82,0.00,,SKC,0.01,VWS V14.01,2013-06-13 21:25:00,
2013-06-13 16:30:00,77.8,71.9,29.93,SSE,167,0.0,1.0,82,0.00,,SKC,0.01,VWS V14.01,2013-06-13 21:30:00,
2013-06-13 16:35:00,77.7,71.0,29.93,SSE,167,0.0,1.0,80,0.00,,SKC,0.01,VWS V14.01,2013-06-13 21:35:00,
2013-06-13 16:40:00,77.6,70.9,29.93,SSE,167,0.0,0.0,80,0.00,,SKC,0.01,VWS V14.01,2013-06-13 21:40:00,
2013-06-13 16:45:00,77.7,71.4,29.92,SSE,167,0.0,0.0,81,0.00,,SKC,0.01,VWS V14.01,2013-06-13 21:45:00,
2013-06-13 16:50:00,77.7,71.0,29.92,SSE,167,0.0,0.0,80,0.00,,SKC,0.01,VWS V14.01,2013-06-13 21:50:00,
2013-06-13 16:55:00,77.8,71.5,29.93,SSE,167,0.0,0.0,81,0.00,,SKC,0.01,VWS V14.01,2013-06-13 21:55:00,
2013-06-13 17:00:00,77.9,71.6,29.93,SSE,167,0.0,0.0,81,0.00,,SKC,0.01,VWS V14.01,2013-06-13 22:00:00,
2013-06-13 17:05:00,78.0,72.4,29.92,SSE,167,0.0,0.0,83,0.00,,SKC,0.01,VWS V14.01,2013-06-13 22:05:00,
2013-06-13 17:10:00,78.1,72.5,29.92,SSE,167,0.0,0.0,83,0.01,,SKC,0.02,VWS V14.01,2013-06-13 22:10:00,
2013-06-13 17:15:00,78.0,72.4,29.92,SSE,167,0.0,0.0,83,0.01,,SKC,0.02,VWS V14.01,2013-06-13 22:15:00,
2013-06-13 17:20:00,78.1,72.9,29.93,SSE,167,0.0,0.0,84,0.01,,SKC,0.02,VWS V14.01,2013-06-13 22:20:00,
2013-06-13 17:25:00,78.1,72.9,29.93,SSE,167,0.0,0.0,84,0.01,,SKC,0.02,VWS V14.01,2013-06-13 22:25:00,
2013-06-13 17:30:00,78.0,72.4,29.94,SSE,167,0.0,0.0,83,0.01,,SKC,0.02,VWS V14.01,2013-06-13 22:30:00,
2013-06-13 17:35:00,77.7,71.8,29.94,SSE,167,0.0,0.0,82,0.01,,SKC,0.02,VWS V14.01,2013-06-13 22:35:00,
2013-06-13 17:40:00,77.6,72.0,29.94,SSE,167,0.0,0.0,83,0.01,,SKC,0.02,VWS V14.01,2013-06-13 22:40:00,
2013-06-13 17:45:00,77.6,72.4,29.93,SSE,167,0.0,0.0,84,0.01,,SKC,0.02,VWS V14.01,2013-06-13 22:45:00,
2013-06-13 17:50:00,77.7,72.5,29.94,SSE,167,0.0,0.0,84,0.01,,SKC,0.02,VWS V14.01,2013-06-13 22:50:00,
2013-06-13 17:55:00,77.7,72.5,29.94,SSE,167,0.0,0.0,84,0.01,,SKC,0.02,VWS V14.01,2013-06-13 22:55:00,
2013-06-13 18:00:00,77.7,72.1,29.94,SSE,167,0.0,0.0,83,0.01,,SKC,0.02,VWS V14.01,2013-06-13 23:00:00,
2013-06-13 18:05:00,77.6,72.4,29.94,SSE,167,0.0,0.0,84,0.01,,SKC,0.02,VWS V14.01,2013-06-13 23:05:00,
2013-06-13 18:10:00,77.6,72.0,29.94,SSE,167,0.0,0.0,83,0.01,,SKC,0.02,VWS V14.01,2013-06-13 23:10:00,
2013-06-13 18:15:00,77.7,72.5,29.93,SSE,167,0.0,0.0,84,0.01,,SKC,0.02,VWS V14.01,2013-06-13 23:15:00,
2013-06-13 18:20:00,77.7,72.5,29.93,SSE,167,0.0,0.0,84,0.00,,SKC,0.02,VWS V14.01,2013-06-13 23:20:00,
2013-06-13 18:24:00,77.7,72.5,29.93,SSE,166,0.0,0.0,84,0.00,,SKC,0.02,VWS V14.01,2013-06-13 23:24:00,
2013-06-13 18:29:00,77.7,72.1,29.94,SSE,166,0.0,0.0,83,0.00,,SKC,0.02,VWS V14.01,2013-06-13 23:29:00,
2013-06-13 18:30:00,77.7,72.5,29.94,SSE,166,0.0,0.0,84,0.00,,SKC,0.02,VWS V14.01,2013-06-13 23:30:00,
2013-06-13 18:34:00,77.7,72.1,29.94,SSE,166,0.0,0.0,83,0.00,,SKC,0.02,VWS V14.01,2013-06-13 23:34:00,
2013-06-13 18:39:00,77.7,71.8,29.94,SSE,166,0.0,0.0,82,0.00,,SKC,0.02,VWS V14.01,2013-06-13 23:39:00,
2013-06-13 18:40:00,77.7,72.1,29.94,SSE,166,0.0,0.0,83,0.00,,SKC,0.02,VWS V14.01,2013-06-13 23:40:00,
2013-06-13 18:44:00,77.6,71.7,29.93,South,175,0.0,0.0,82,0.00,,SKC,0.02,VWS V14.01,2013-06-13 23:44:00,
2013-06-13 18:49:00,77.6,71.7,29.93,South,175,0.0,0.0,82,0.00,,SKC,0.02,VWS V14.01,2013-06-13 23:49:00,
2013-06-13 18:50:00,77.6,71.7,29.94,South,175,0.0,0.0,82,0.00,,SKC,0.02,VWS V14.01,2013-06-13 23:50:00,
2013-06-13 18:54:00,77.6,71.7,29.93,South,175,0.0,0.0,82,0.00,,SKC,0.02,VWS V14.01,2013-06-13 23:54:00,
2013-06-13 18:59:00,77.6,71.7,29.93,South,175,0.0,0.0,82,0.00,,SKC,0.02,VWS V14.01,2013-06-13 23:59:00,
2013-06-13 19:00:00,77.6,71.7,29.93,South,175,0.0,0.0,82,0.00,,SKC,0.02,VWS V14.01,2013-06-14 00:00:00,
2013-06-13 19:04:00,77.6,72.0,29.93,South,175,0.0,0.0,83,0.00,,SKC,0.02,VWS V14.01,2013-06-14 00:04:00,
2013-06-13 19:09:00,77.6,71.7,29.93,South,175,0.0,0.0,82,0.00,,SKC,0.02,VWS V14.01,2013-06-14 00:09:00,
2013-06-13 19:10:00,77.6,71.7,29.93,South,175,0.0,0.0,82,0.00,,SKC,0.02,VWS V14.01,2013-06-14 00:10:00,
2013-06-13 19:14:00,77.6,72.0,29.93,South,175,0.0,1.0,83,0.00,,SKC,0.02,VWS V14.01,2013-06-14 00:14:00,
2013-06-13 19:19:00,77.6,72.4,29.93,South,175,0.0,0.0,84,0.00,,SKC,0.02,VWS V14.01,2013-06-14 00:19:00,
2013-06-13 19:20:00,77.6,72.0,29.93,South,175,0.0,1.0,83,0.00,,SKC,0.02,VWS V14.01,2013-06-14 00:20:00,
2013-06-13 19:24:00,77.5,72.3,29.93,South,175,0.0,0.0,84,0.00,,SKC,0.02,VWS V14.01,2013-06-14 00:24:00,
2013-06-13 19:29:00,77.5,72.6,29.93,South,175,0.0,2.0,85,0.00,,SKC,0.02,VWS V14.01,2013-06-14 00:29:00,
2013-06-13 19:30:00,77.5,72.3,29.93,South,175,0.0,0.0,84,0.00,,SKC,0.02,VWS V14.01,2013-06-14 00:30:00,
2013-06-13 19:34:00,77.3,72.4,29.92,South,175,0.0,2.0,85,0.00,,SKC,0.02,VWS V14.01,2013-06-14 00:34:00,
2013-06-13 19:39:00,77.2,72.3,29.92,South,175,0.0,0.0,85,0.00,,SKC,0.02,VWS V14.01,2013-06-14 00:39:00,
2013-06-13 19:40:00,77.3,72.4,29.92,South,175,0.0,2.0,85,0.00,,SKC,0.02,VWS V14.01,2013-06-14 00:40:00,
2013-06-13 19:44:00,77.1,72.2,29.91,South,175,0.0,0.0,85,0.00,,SKC,0.02,VWS V14.01,2013-06-14 00:44:00,
2013-06-13 19:49:00,77.0,72.2,29.91,South,175,0.0,0.0,85,0.00,,SKC,0.02,VWS V14.01,2013-06-14 00:49:00,
2013-06-13 19:50:00,77.1,72.2,29.91,South,175,0.0,0.0,85,0.00,,SKC,0.02,VWS V14.01,2013-06-14 00:50:00,
2013-06-13 19:54:00,76.9,72.1,29.91,South,175,0.0,0.0,85,0.00,,SKC,0.02,VWS V14.01,2013-06-14 00:54:00,
2013-06-13 19:59:00,76.8,71.9,29.91,South,175,0.0,0.0,85,0.00,,SKC,0.02,VWS V14.01,2013-06-14 00:59:00,
2013-06-13 20:00:00,76.9,72.1,29.91,South,175,0.0,0.0,85,0.00,,SKC,0.02,VWS V14.01,2013-06-14 01:00:00,
2013-06-13 20:04:00,76.8,72.3,29.90,South,175,0.0,0.0,86,0.00,,SKC,0.02,VWS V14.01,2013-06-14 01:04:00,
2013-06-13 20:09:00,76.7,72.2,29.90,South,175,0.0,0.0,86,0.00,,SKC,0.02,VWS V14.01,2013-06-14 01:09:00,
2013-06-13 20:10:00,76.7,72.2,29.90,South,175,0.0,0.0,86,0.00,,SKC,0.02,VWS V14.01,2013-06-14 01:10:00,
2013-06-13 20:14:00,76.6,72.1,29.90,South,175,0.0,0.0,86,0.00,,SKC,0.02,VWS V14.01,2013-06-14 01:14:00,
2013-06-13 20:19:00,76.5,72.0,29.90,South,175,0.0,0.0,86,0.00,,SKC,0.02,VWS V14.01,2013-06-14 01:19:00,
2013-06-13 20:20:00,76.6,72.1,29.90,South,175,0.0,0.0,86,0.00,,SKC,0.02,VWS V14.01,2013-06-14 01:20:00,
2013-06-13 20:24:00,76.4,71.9,29.90,South,175,0.0,0.0,86,0.00,,SKC,0.02,VWS V14.01,2013-06-14 01:24:00,
2013-06-13 20:29:00,76.4,71.9,29.90,South,175,0.0,0.0,86,0.00,,SKC,0.02,VWS V14.01,2013-06-14 01:29:00,
2013-06-13 20:30:00,76.4,71.9,29.90,South,175,0.0,0.0,86,0.00,,SKC,0.02,VWS V14.01,2013-06-14 01:30:00,
2013-06-13 20:34:00,76.3,72.2,29.91,South,175,0.0,0.0,87,0.00,,SKC,0.02,VWS V14.01,2013-06-14 01:34:00,
2013-06-13 20:39:00,76.2,72.1,29.91,South,175,0.0,0.0,87,0.00,,SKC,0.02,VWS V14.01,2013-06-14 01:39:00,
2013-06-13 20:40:00,76.3,72.2,29.91,South,175,0.0,1.0,87,0.00,,SKC,0.02,VWS V14.01,2013-06-14 01:40:00,
2013-06-13 20:44:00,76.2,72.1,29.91,South,175,0.0,0.0,87,0.00,,SKC,0.02,VWS V14.01,2013-06-14 01:44:00,
2013-06-13 20:49:00,76.1,71.9,29.91,South,175,0.0,0.0,87,0.00,,SKC,0.02,VWS V14.01,2013-06-14 01:49:00,
2013-06-13 20:50:00,76.2,72.1,29.91,South,175,0.0,0.0,87,0.00,,SKC,0.02,VWS V14.01,2013-06-14 01:50:00,
2013-06-13 20:54:00,76.0,72.2,29.92,South,175,0.0,0.0,88,0.00,,SKC,0.02,VWS V14.01,2013-06-14 01:54:00,
2013-06-13 20:59:00,75.9,72.1,29.91,South,175,0.0,0.0,88,0.00,,SKC,0.02,VWS V14.01,2013-06-14 01:59:00,
2013-06-13 21:00:00,76.0,72.2,29.92,South,175,0.0,0.0,88,0.00,,SKC,0.02,VWS V14.01,2013-06-14 02:00:00,
2013-06-13 21:04:00,75.9,72.1,29.91,South,175,0.0,0.0,88,0.00,,SKC,0.02,VWS V14.01,2013-06-14 02:04:00,
2013-06-13 21:09:00,75.8,72.3,29.91,South,175,0.0,0.0,89,0.00,,SKC,0.02,VWS V14.01,2013-06-14 02:09:00,
2013-06-13 21:10:00,75.8,72.0,29.91,South,175,0.0,0.0,88,0.00,,SKC,0.02,VWS V14.01,2013-06-14 02:10:00,
2013-06-13 21:14:00,75.7,72.2,29.91,South,174,0.0,0.0,89,0.00,,SKC,0.02,VWS V14.01,2013-06-14 02:14:00,
2013-06-13 21:19:00,75.6,72.1,29.91,South,174,0.0,2.0,89,0.00,,SKC,0.02,VWS V14.01,2013-06-14 02:19:00,
2013-06-13 21:20:00,75.7,72.2,29.91,South,174,0.0,0.0,89,0.00,,SKC,0.02,VWS V14.01,2013-06-14 02:20:00,
2013-06-13 21:24:00,75.5,72.0,29.91,South,174,0.0,2.0,89,0.00,,SKC,0.02,VWS V14.01,2013-06-14 02:24:00,
2013-06-13 21:29:00,75.4,71.9,29.91,South,174,0.0,0.0,89,0.00,,SKC,0.02,VWS V14.01,2013-06-14 02:29:00,
2013-06-13 21:30:00,75.5,72.0,29.91,South,174,0.0,2.0,89,0.00,,SKC,0.02,VWS V14.01,2013-06-14 02:30:00,
2013-06-13 21:34:00,75.3,72.2,29.91,South,174,0.0,0.0,90,0.00,,SKC,0.02,VWS V14.01,2013-06-14 02:34:00,
2013-06-13 21:39:00,75.3,71.8,29.91,South,174,0.0,2.0,89,0.00,,SKC,0.02,VWS V14.01,2013-06-14 02:39:00,
2013-06-13 21:40:00,75.3,71.8,29.91,South,174,0.0,0.0,89,0.00,,SKC,0.02,VWS V14.01,2013-06-14 02:40:00,
2013-06-13 21:44:00,75.2,71.7,29.90,South,174,0.0,2.0,89,0.00,,SKC,0.02,VWS V14.01,2013-06-14 02:44:00,
2013-06-13 21:49:00,75.1,71.6,29.90,South,174,0.0,0.0,89,0.00,,SKC,0.02,VWS V14.01,2013-06-14 02:49:00,
2013-06-13 21:50:00,75.1,71.6,29.90,South,174,0.0,2.0,89,0.00,,SKC,0.02,VWS V14.01,2013-06-14 02:50:00,
2013-06-13 21:54:00,75.0,71.5,29.90,South,174,0.0,0.0,89,0.00,,SKC,0.02,VWS V14.01,2013-06-14 02:54:00,
2013-06-13 21:59:00,74.9,71.4,29.90,South,174,0.0,0.0,89,0.00,,SKC,0.02,VWS V14.01,2013-06-14 02:59:00,
2013-06-13 22:00:00,75.0,71.5,29.90,South,174,0.0,0.0,89,0.00,,SKC,0.02,VWS V14.01,2013-06-14 03:00:00,
2013-06-13 22:04:00,74.9,71.8,29.91,South,174,0.0,0.0,90,0.00,,SKC,0.02,VWS V14.01,2013-06-14 03:04:00,
2013-06-13 22:09:00,74.8,71.7,29.91,South,174,0.0,0.0,90,0.00,,SKC,0.02,VWS V14.01,2013-06-14 03:09:00,
2013-06-13 22:10:00,74.9,71.8,29.91,South,174,0.0,0.0,90,0.00,,SKC,0.02,VWS V14.01,2013-06-14 03:10:00,
2013-06-13 22:14:00,74.8,71.7,29.91,South,174,0.0,0.0,90,0.00,,SKC,0.02,VWS V14.01,2013-06-14 03:14:00,
2013-06-13 22:19:00,74.7,71.6,29.92,South,174,0.0,0.0,90,0.00,,SKC,0.02,VWS V14.01,2013-06-14 03:19:00,
2013-06-13 22:20:00,74.8,71.7,29.91,South,174,0.0,0.0,90,0.00,,SKC,0.02,VWS V14.01,2013-06-14 03:20:00,
2013-06-13 22:24:00,74.7,71.6,29.93,South,174,0.0,0.0,90,0.00,,SKC,0.02,VWS V14.01,2013-06-14 03:24:00,
2013-06-13 22:29:00,74.6,71.5,29.93,South,174,0.0,0.0,90,0.00,,SKC,0.02,VWS V14.01,2013-06-14 03:29:00,
2013-06-13 22:30:00,74.7,71.6,29.93,South,174,0.0,0.0,90,0.00,,SKC,0.02,VWS V14.01,2013-06-14 03:30:00,
2013-06-13 22:34:00,74.5,71.4,29.93,South,174,0.0,0.0,90,0.00,,SKC,0.02,VWS V14.01,2013-06-14 03:34:00,
2013-06-13 22:39:00,74.5,71.4,29.93,South,174,0.0,0.0,90,0.00,,SKC,0.02,VWS V14.01,2013-06-14 03:39:00,
2013-06-13 22:40:00,74.5,71.4,29.93,South,174,0.0,0.0,90,0.00,,SKC,0.02,VWS V14.01,2013-06-14 03:40:00,
2013-06-13 22:44:00,74.5,71.4,29.93,South,174,0.0,0.0,90,0.00,,SKC,0.02,VWS V14.01,2013-06-14 03:44:00,
2013-06-13 22:49:00,74.4,71.3,29.94,South,174,0.0,0.0,90,0.00,,SKC,0.02,VWS V14.01,2013-06-14 03:49:00,
2013-06-13 22:50:00,74.5,71.4,29.94,South,174,0.0,0.0,90,0.00,,SKC,0.02,VWS V14.01,2013-06-14 03:50:00,
2013-06-13 22:54:00,74.4,71.3,29.93,South,174,0.0,0.0,90,0.00,,SKC,0.02,VWS V14.01,2013-06-14 03:54:00,
2013-06-13 22:59:00,74.4,71.3,29.93,South,174,0.0,0.0,90,0.00,,SKC,0.02,VWS V14.01,2013-06-14 03:59:00,
2013-06-13 23:00:00,74.4,71.3,29.94,South,174,0.0,0.0,90,0.00,,SKC,0.02,VWS V14.01,2013-06-14 04:00:00,
2013-06-13 23:01:00,74.4,71.3,29.94,South,174,0.0,0.0,90,0.00,,SKC,0.02,VWS V14.01,2013-06-14 04:01:00,
2013-06-13 23:06:00,74.4,71.3,29.94,South,174,0.0,0.0,90,0.00,,SKC,0.02,VWS V14.01,2013-06-14 04:06:00,
2013-06-13 23:10:00,74.4,71.3,29.94,South,174,0.0,0.0,90,0.00,,SKC,0.02,VWS V14.01,2013-06-14 04:10:00,
2013-06-13 23:11:00,74.4,71.6,29.94,South,174,0.0,0.0,91,0.00,,SKC,0.02,VWS V14.01,2013-06-14 04:11:00,
2013-06-13 23:16:00,74.4,71.6,29.93,South,174,0.0,0.0,91,0.00,,SKC,0.02,VWS V14.01,2013-06-14 04:16:00,
2013-06-13 23:20:00,74.4,71.6,29.93,South,174,0.0,0.0,91,0.00,,SKC,0.02,VWS V14.01,2013-06-14 04:20:00,
2013-06-13 23:21:00,74.4,71.6,29.94,South,174,0.0,0.0,91,0.00,,SKC,0.02,VWS V14.01,2013-06-14 04:21:00,
2013-06-13 23:26:00,74.4,71.6,29.94,South,174,0.0,0.0,91,0.00,,SKC,0.02,VWS V14.01,2013-06-14 04:26:00,
2013-06-13 23:30:00,74.4,71.6,29.94,South,174,0.0,0.0,91,0.00,,SKC,0.02,VWS V14.01,2013-06-14 04:30:00,
2013-06-13 23:31:00,74.4,71.6,29.94,South,174,0.0,0.0,91,0.00,,SKC,0.02,VWS V14.01,2013-06-14 04:31:00,
2013-06-13 23:36:00,74.4,71.6,29.93,South,174,0.0,0.0,91,0.00,,SKC,0.02,VWS V14.01,2013-06-14 04:36:00,
2013-06-13 23:40:00,74.4,71.6,29.93,South,174,0.0,0.0,91,0.00,,SKC,0.02,VWS V14.01,2013-06-14 04:40:00,
2013-06-13 23:41:00,74.4,71.6,29.93,South,174,0.0,0.0,91,0.00,,SKC,0.02,VWS V14.01,2013-06-14 04:41:00,
2013-06-13 23:46:00,74.4,71.6,29.93,South,174,0.0,0.0,91,0.00,,SKC,0.02,VWS V14.01,2013-06-14 04:46:00,
2013-06-13 23:50:00,74.4,71.6,29.93,South,174,0.0,0.0,91,0.00,,SKC,0.02,VWS V14.01,2013-06-14 04:50:00,
2013-06-13 23:51:00,74.4,71.6,29.93,South,174,0.0,0.0,91,0.00,,SKC,0.02,VWS V14.01,2013-06-14 04:51:00,
2013-06-13 23:56:00,74.4,71.6,29.93,South,174,0.0,0.0,91,0.00,,SKC,0.02,VWS V14.01,2013-06-14 04:56:00,